^^
Saratoga-Weather Station Historical Data
Daily Summary for December 1, 2020 Units:  English    Metric   Both
Daily Weekly Monthly Yearly Custom
  High: Low: Average:
Temperature: 39 °F 33.3 °F 35.4 °F
Dew Point: 37.8 °F 31.5 °F 34 °F
Humidity: 96% 93% 95%
Wind Speed: 12.1mph 0mph 3.7mph
Wind Gust: 16mph - -
Wind- - West
Pressure: 30.1 in 30 in -
Precipitation: 0.02 in    
Historical Graphs
 
 
Tabular Data for December 1, 2020
Time Temperature Dew Point Pressure Wind Wind Speed Wind Gust Humidity Rainfall Rate (Hourly) solar
00:01 33.3 °F 31.5 °F 30.1 in North 0.9 mph 2 mph 93% 0 in 0 W/m2
00:06 33.3 °F 31.5 °F 30.1 in Calm   1 mph 93% 0 in 0 W/m2
00:11 33.3 °F 31.5 °F 30.1 in ESE 2 mph 3 mph 93% 0 in 0 W/m2
00:16 33.3 °F 31.5 °F 30.1 in Calm   2 mph 93% 0 in 0 W/m2
00:21 33.3 °F 31.5 °F 30.1 in NNE 2 mph 2 mph 93% 0 in 0 W/m2
00:26 33.3 °F 31.5 °F 30.1 in NNE 0.9 mph 1 mph 93% 0 in 0 W/m2
00:31 33.3 °F 31.5 °F 30.1 in Calm   2 mph 93% 0 in 0 W/m2
00:36 33.4 °F 31.6 °F 30.1 in North 0.9 mph 2 mph 93% 0 in 0 W/m2
00:41 33.4 °F 31.6 °F 30.1 in Calm   1 mph 93% 0 in 0 W/m2
00:46 33.4 °F 31.6 °F 30.1 in Calm   1 mph 93% 0 in 0 W/m2
00:51 33.4 °F 31.6 °F 30.1 in NNE 0.9 mph 3 mph 93% 0 in 0 W/m2
00:56 33.6 °F 31.8 °F 30.1 in NE 0.9 mph 2 mph 93% 0 in 0 W/m2
01:01 33.6 °F 32 °F 30.1 in North 0.9 mph 3 mph 94% 0 in 0 W/m2
01:06 33.6 °F 32 °F 30.1 in Calm   2 mph 94% 0 in 0 W/m2
01:11 33.6 °F 32 °F 30.1 in Calm     94% 0 in 0 W/m2
01:16 33.6 °F 32 °F 30.1 in West 0.9 mph 5 mph 94% 0 in 0 W/m2
01:21 33.6 °F 32 °F 30.1 in NW 0.9 mph 2 mph 94% 0 in 0 W/m2
01:26 33.8 °F 32.2 °F 30.1 in Calm   3 mph 94% 0 in 0 W/m2
01:31 33.8 °F 32.2 °F 30.1 in NNW 0.9 mph 4 mph 94% 0 in 0 W/m2
01:36 34 °F 32.4 °F 30.1 in West 0.9 mph 2 mph 94% 0 in 0 W/m2
01:41 34 °F 32.4 °F 30.1 in NW 2 mph 5 mph 94% 0 in 0 W/m2
01:46 34 °F 32.4 °F 30.1 in WNW 2 mph 2 mph 94% 0 in 0 W/m2
01:51 34.2 °F 32.5 °F 30.1 in NNW 2 mph 2 mph 94% 0 in 0 W/m2
01:56 34.2 °F 32.5 °F 30 in NW 2 mph 4 mph 94% 0 in 0 W/m2
02:01 34.2 °F 32.5 °F 30 in North 2.9 mph 3 mph 94% 0 in 0 W/m2
02:06 34.2 °F 32.5 °F 30 in NW 0.9 mph 2 mph 94% 0 in 0 W/m2
02:11 34.3 °F 32.7 °F 30 in WNW 0.9 mph 5 mph 94% 0 in 0 W/m2
02:16 34.3 °F 32.7 °F 30 in North 2 mph 3 mph 94% 0 in 0 W/m2
02:21 34.3 °F 32.7 °F 30 in NNW 2 mph 3 mph 94% 0 in 0 W/m2
02:26 34.3 °F 32.7 °F 30 in North 0.9 mph 4 mph 94% 0 in 0 W/m2
02:32 34.3 °F 32.7 °F 30 in SSW 2 mph 7 mph 94% 0 in 0 W/m2
02:37 34.3 °F 32.7 °F 30 in Calm   2 mph 94% 0 in 0 W/m2
02:42 34.3 °F 32.7 °F 30 in NNW 0.9 mph 4 mph 94% 0 in 0 W/m2
02:47 34.3 °F 32.7 °F 30 in Calm   3 mph 94% 0 in 0 W/m2
02:52 34.3 °F 32.7 °F 30 in WSW 0.9 mph 4 mph 94% 0 in 0 W/m2
02:57 34.3 °F 32.7 °F 30 in Calm   2 mph 94% 0 in 0 W/m2
03:02 34.3 °F 32.7 °F 30 in NE 0.9 mph 2 mph 94% 0 in 0 W/m2
03:07 34.3 °F 32.7 °F 30 in WNW 0.9 mph 3 mph 94% 0 in 0 W/m2
03:12 34.3 °F 32.7 °F 30 in Calm   3 mph 94% 0 in 0 W/m2
03:17 34.5 °F 32.9 °F 30 in Calm   2 mph 94% 0 in 0 W/m2
03:22 34.5 °F 32.9 °F 30 in West 2 mph 4 mph 94% 0 in 0 W/m2
03:27 34.5 °F 32.9 °F 30 in WNW 0.9 mph 3 mph 94% 0 in 0 W/m2
03:32 34.5 °F 32.9 °F 30 in NNW 0.9 mph 2 mph 94% 0 in 0 W/m2
03:37 34.5 °F 32.9 °F 30 in West 0.9 mph 2 mph 94% 0 in 0 W/m2
03:42 34.5 °F 33.3 °F 30 in Calm   10 mph 95% 0 in 0 W/m2
03:47 34.5 °F 33.3 °F 30 in West 2.9 mph 4 mph 95% 0 in 0 W/m2
03:52 34.5 °F 33.3 °F 30 in WNW 4 mph 8 mph 95% 0 in 0 W/m2
03:57 34.5 °F 33.3 °F 30 in WNW 4 mph 4 mph 95% 0 in 0 W/m2
04:02 34.7 °F 33.4 °F 30 in NNW 4.9 mph 8 mph 95% 0 in 0 W/m2
04:07 34.7 °F 33.4 °F 30 in West 4 mph 8 mph 95% 0 in 0 W/m2
04:12 34.7 °F 33.4 °F 30 in West 2.9 mph 7 mph 95% 0 in 0 W/m2
04:17 34.9 °F 33.6 °F 30 in West 11 mph 11 mph 95% 0 in 0 W/m2
04:22 34.9 °F 33.6 °F 30 in West 6 mph 11 mph 95% 0 in 0 W/m2
04:27 34.9 °F 33.6 °F 30 in WSW 2 mph 15 mph 95% 0 in 0 W/m2
04:32 34.9 °F 33.6 °F 30 in West 6.9 mph 12 mph 95% 0 in 0 W/m2
04:37 34.9 °F 33.6 °F 30 in West 8.1 mph 15 mph 95% 0 in 0 W/m2
04:42 34.9 °F 33.6 °F 30 in NW 8.9 mph 9 mph 95% 0 in 0 W/m2
04:47 34.9 °F 33.6 °F 30 in WNW 4 mph 6 mph 95% 0 in 0 W/m2
04:52 35.1 °F 33.8 °F 30 in NW 2 mph 4 mph 95% 0 in 0 W/m2
04:57 35.1 °F 33.8 °F 30 in WNW 0.9 mph 7 mph 95% 0 in 0 W/m2
05:02 35.1 °F 33.8 °F 30 in WNW 2.9 mph 8 mph 95% 0 in 0 W/m2
05:07 35.1 °F 33.8 °F 30 in NW 2.9 mph 8 mph 95% 0 in 0 W/m2
05:12 35.1 °F 33.8 °F 30 in Calm   3 mph 95% 0 in 0 W/m2
05:17 35.1 °F 33.8 °F 30 in NW 0.9 mph 8 mph 95% 0 in 0 W/m2
05:22 35.1 °F 33.8 °F 30 in WSW 4 mph 10 mph 95% 0.02 in 0 W/m2
05:27 35.1 °F 33.8 °F 30 in NW 2.9 mph 7 mph 95% 0.02 in 0 W/m2
05:32 35.1 °F 33.8 °F 30 in Calm   10 mph 95% 0.02 in 0 W/m2
05:37 35.1 °F 33.8 °F 30 in WNW 2.9 mph 6 mph 95% 0.02 in 0 W/m2
05:42 35.1 °F 33.8 °F 30 in WNW 4 mph 9 mph 95% 0.02 in 0 W/m2
05:47 35.2 °F 34 °F 30 in WNW 2 mph 10 mph 95% 0.02 in 0 W/m2
05:52 35.2 °F 34 °F 30 in West 6 mph 8 mph 95% 0.02 in 0 W/m2
05:57 35.2 °F 34 °F 30 in WNW 4 mph 12 mph 95% 0.02 in 0 W/m2
06:02 35.4 °F 34.3 °F 30 in NW 8.1 mph 11 mph 96% 0.02 in 0 W/m2
06:07 35.6 °F 34.5 °F 30 in WSW 6 mph 10 mph 96% 0.02 in 0 W/m2
06:12 35.8 °F 34.7 °F 30 in NW 2 mph 9 mph 96% 0.02 in 0 W/m2
06:17 35.8 °F 34.7 °F 30 in WSW 4.9 mph 15 mph 96% 0.02 in 0 W/m2
06:22 35.8 °F 34.7 °F 30 in West 8.1 mph 10 mph 96% 0 in 0 W/m2
06:27 35.8 °F 34.7 °F 30 in WNW 8.1 mph 15 mph 96% 0 in 0 W/m2
06:32 36 °F 34.9 °F 30 in WSW 4 mph 10 mph 96% 0 in 0 W/m2
06:37 36 °F 34.9 °F 30 in West 2 mph 11 mph 96% 0 in 0 W/m2
06:42 36.1 °F 35.1 °F 30 in West 6 mph 8 mph 96% 0 in 0 W/m2
06:47 36.1 °F 35.1 °F 30 in WNW 4.9 mph 7 mph 96% 0 in 0 W/m2
06:52 36.1 °F 35.1 °F 30 in South 6.9 mph 10 mph 96% 0 in 0 W/m2
06:57 36.3 °F 35.2 °F 30 in NNW 2 mph 11 mph 96% 0 in 0 W/m2
07:02 36.5 °F 35.4 °F 30 in WNW 2 mph 11 mph 96% 0 in 0 W/m2
07:07 36.3 °F 35.2 °F 30 in NW 2.9 mph 8 mph 96% 0 in 0 W/m2
07:12 36.3 °F 35.2 °F 30 in WSW 6.9 mph 9 mph 96% 0 in 0 W/m2
07:17 36.3 °F 35.2 °F 30 in West 4 mph 8 mph 96% 0 in 0 W/m2
07:22 36.3 °F 35.2 °F 30 in SW 6.9 mph 10 mph 96% 0 in 0 W/m2
07:27 36.3 °F 35.2 °F 30 in WNW 6.9 mph 8 mph 96% 0 in 0 W/m2
07:32 36.3 °F 35.2 °F 30 in WNW 10.1 mph 11 mph 96% 0 in 0 W/m2
07:37 36.5 °F 35.4 °F 30 in WNW 8.9 mph 10 mph 96% 0 in 0 W/m2
07:42 36.7 °F 35.6 °F 30 in NNW 8.1 mph 12 mph 96% 0 in 0 W/m2
07:47 36.7 °F 35.6 °F 30 in NW 4.9 mph 8 mph 96% 0 in 0 W/m2
07:52 36.7 °F 35.6 °F 30 in WNW 4 mph 7 mph 96% 0 in 0 W/m2
07:57 36.9 °F 35.6 °F 30 in West 4 mph 7 mph 95% 0 in 0 W/m2
08:02 36.9 °F 35.6 °F 30 in WSW 8.1 mph 13 mph 95% 0 in 0 W/m2
08:07 37 °F 35.8 °F 30 in West 8.1 mph 13 mph 95% 0 in 0 W/m2
08:12 37 °F 36 °F 30 in West 4 mph 7 mph 96% 0 in 5 W/m2
08:17 37 °F 36 °F 30 in NW 4 mph 9 mph 96% 0 in 7 W/m2
08:22 37.2 °F 36.1 °F 30 in WSW 10.1 mph 10 mph 96% 0 in 11 W/m2
08:27 37.4 °F 36.3 °F 30 in West 6 mph 8 mph 96% 0 in 16 W/m2
08:32 37.6 °F 36.5 °F 30 in WNW 12.1 mph 12 mph 96% 0 in 16 W/m2
08:37 37.8 °F 36.7 °F 30 in WNW 8.1 mph 10 mph 96% 0 in 12 W/m2
08:42 37.8 °F 36.7 °F 30 in WNW 8.1 mph 10 mph 96% 0 in 14 W/m2
08:47 37.9 °F 36.7 °F 30 in WNW 6.9 mph 11 mph 95% 0 in 23 W/m2
08:52 38.1 °F 36.9 °F 30 in West 4 mph 7 mph 95% 0 in 25 W/m2
08:57 38.1 °F 36.9 °F 30 in WNW 12.1 mph 12 mph 95% 0 in 25 W/m2
09:02 38.1 °F 36.9 °F 30 in West 2.9 mph 10 mph 95% 0 in 23 W/m2
09:07 38.1 °F 36.9 °F 30 in WNW 0.9 mph 12 mph 95% 0 in 25 W/m2
09:12 38.3 °F 37 °F 30 in West 6 mph 10 mph 95% 0 in 21 W/m2
09:17 38.5 °F 37.2 °F 30 in WSW 6.9 mph 11 mph 95% 0 in 30 W/m2
09:22 38.7 °F 37.4 °F 30 in West 12.1 mph 16 mph 95% 0 in 39 W/m2
09:27 38.8 °F 37.6 °F 30 in West 8.1 mph 11 mph 95% 0 in 40 W/m2
09:32 38.8 °F 37.6 °F 30 in West 11 mph 11 mph 95% 0 in 49 W/m2
09:37 39 °F 37.8 °F 30 in West 8.1 mph 11 mph 95% 0 in 47 W/m2
09:42 39 °F 37.8 °F 30 in West 6 mph 14 mph 95% 0 in 74 W/m2
Juneau County Weather
Compliments of Weather Underground - 4 mb